Regional Weather Roundup
Issued by NWS

Home | Current Version | Previous Version | Text Only | Print | Product List | Glossary On
Versions: 1 2 3 4 5 6 7 8 9 10 11 12 13 14 15 16 17 18 19 20 21 22 23 24 25 26 27 28 29 30 31 32 33 34 35 36 37 38 39 40 41 42 43 44 45 46 47 48 49 50
000
ASUS43 KDMX 060007
RWRIA

WEATHER ROUNDUP FOR IOWA
NATIONAL WEATHER SERVICE DES MOINES IA
600 PM CST THU MAR 05 2015

NOTE: "FAIR" INDICATES FEW OR NO CLOUDS BELOW 12,000 FEET WITH NO
SIGNIFICANT WEATHER AND/OR OBSTRUCTIONS TO VISIBILITY.

* - THESE STATIONS ARE NOT NWS STATIONS...THUS NOT UNDER NWS
QUALITY CONTROL.  THEY ALSO DO NOT REPORT WEATHER SUCH
AS PRECIPITATION OR FOG.

IAZ001>003-012>014-020>022-031>034-043>046-060100-
   NORTHWEST IOWA

CITY           SKY/WX    TMP DP  RH WIND       PRES   REMARKS
CARROLL *      CLEAR     23   7  50 S8        30.41F WCI  14
CHEROKEE *     CLEAR     24   7  49 S9        30.37S WCI  14
DENISON *      CLEAR     25   5  42 S12       30.37F WCI  14
LE MARS *      CLEAR     28   7  40 S12       30.33F WCI  18
ORANGE CITY *  CLEAR     27   7  43 S10       30.32S WCI  17
SHELDON *      CLEAR     25   5  42 S12       30.31S WCI  14
SIOUX CITY     CLEAR     31   5  33 S13       30.35S WCI  21
6HR MIN TEMP:  21; 6HR MAX TEMP:  33;

SPENCER        CLEAR     20   6  55 S9        30.36F WCI   9
6HR MIN TEMP:  13; 6HR MAX TEMP:  22;

STORM LAKE *   CLEAR     19   7  58 S13       30.37S WCI   7
$$

IAZ055>058-069>071-079>083-090>094-060100-
   SOUTHWEST IOWA

CITY           SKY/WX    TMP DP  RH WIND       PRES   REMARKS
ATLANTIC *     CLEAR     25   5  42 S7G14     30.42F WCI  17
AUDUBON *      CLEAR     23   5  46 S6        30.42S WCI  16
CLARINDA *     CLEAR     27   3  36 S8        30.47S WCI  18
COUNCIL BLFS * CLEAR     27   7  43 S10       30.39S WCI  17
CRESTON *      CLEAR     23   1  39 S7        30.44F WCI  15
HARLAN  *      CLEAR     25   7  46 S10       30.44F WCI  15
LAMONI         CLEAR     23   3  42 SE3       30.47S
6HR MIN TEMP:  16; 6HR MAX TEMP:  25;

RED OAK *      CLEAR     27   3  36 S9        30.44S WCI  17
SHENANDOAH *   CLEAR     28   3  34 S10       30.45S WCI  19
$$

IAZ047>049-059>061-072>074-084-060100-
   CENTRAL IOWA

CITY           SKY/WX    TMP DP  RH WIND       PRES   REMARKS
AMES           CLEAR     15   3  59 S7        30.47F WCI   5
6HR MIN TEMP:   8; 6HR MAX TEMP:  17;

ANKENY *       CLEAR     19   0  42 S5        30.49S WCI  13
CHARITON *     CLEAR     21   3  45 S7        30.49S WCI  13
DES MOINES     CLEAR     21   1  41 S6        30.48F WCI  13
6HR MIN TEMP:  13; 6HR MAX TEMP:  21;

GRINNELL*      CLEAR     12   3  67 SE3       30.50S
KNOXVILLE *    CLEAR     19   1  45 CALM      30.49R
MARSHALLTOWN   CLEAR     11   0  61 S6        30.48F WCI   1
6HR MIN TEMP:   5; 6HR MAX TEMP:  13;

PELLA *        CLEAR     17   7  62 SE5       30.53R WCI  10
PERRY *          N/A     21   9  58 SE9       30.45F WCI  11
$$

IAZ004>006-015-016-023>025-035-036-060100-
   NORTH CENTRAL IOWA

CITY           SKY/WX    TMP DP  RH WIND       PRES   REMARKS
ALGONA *       CLEAR     18 N/A N/A S12       30.40F WCI   5
CLARION *      CLEAR     16   7  67 S9        30.43F WCI   4
ESTHERVILLE    CLEAR     17   4  56 S12       30.36F WCI   4
6HR MIN TEMP:   9; 6HR MAX TEMP:  18;

FORT DODGE *   CLEAR     18   3  53 S7        30.43S WCI   8
MASON CITY     CLEAR      9   1  70 S9        30.44S WCI  -4
6HR MIN TEMP:   6; 6HR MAX TEMP:  13;

FOREST CITY *  CLEAR     12   3  67 S10       30.41F WCI  -1
IOWA FALLS *     N/A      9   1  72 SE7       30.47S WCI  -3
$$

IAZ007>011-017>019-026>030-037>042-050>054-066-060100-
   NORTHEAST IOWA

CITY           SKY/WX    TMP DP  RH WIND       PRES   REMARKS
CEDAR RAPIDS   CLEAR      7  -1  70 NW5       30.52S WCI  -2
6HR MIN TEMP:   6; 6HR MAX TEMP:  10;

CHARLES CITY * CLEAR      7  -2  66 SW7       30.48R WCI  -5
CLINTON *      CLEAR      7   0  72 W3        30.56S
DECORAH *      CLEAR      7  -4  61 SW5       30.45S WCI  -2
DUBUQUE        CLEAR      6  -5  60 W8        30.48S WCI  -7
6HR MIN TEMP:   6; 6HR MAX TEMP:  10;

MONTICELLO *   CLEAR      9  -4  56 W5        30.52S WCI   0
OELWEIN *      CLEAR      5  -4  66 SW6       30.49S WCI  -6
WATERLOO       CLEAR      7  -2  66 SW8       30.50S WCI  -6
6HR MIN TEMP:   6; 6HR MAX TEMP:  11;

$$

IAZ064-065-067-068-078-060100-
   EAST CENTRAL IOWA

CITY           SKY/WX    TMP DP  RH WIND       PRES   REMARKS
DAVENPORT      CLEAR      9  -2  61 NW5       30.55R WCI   1
6HR MIN TEMP:   7; 6HR MAX TEMP:  11;

IOWA CITY      CLEAR     11  -1  58 SW5       30.57R WCI   3
6HR MIN TEMP:   8; 6HR MAX TEMP:  13;

MT. PLEASANT * CLEAR     15  -1  50 CALM      30.56R
MUSCATINE *    CLEAR     12   0  57 NW3       30.58R
QUAD CITIES    CLEAR     12  -2  53 NW6       30.55R WCI   3
6HR MIN TEMP:  11; 6HR MAX TEMP:  14;

$$

IAZ062-063-075>077-085>089-095>099-060100-
   SOUTHEAST IOWA

CITY           SKY/WX    TMP DP  RH WIND       PRES   REMARKS
BURLINGTON     CLEAR     14   0  53 N3        30.54S
6HR MIN TEMP:  10; 6HR MAX TEMP:  16;

FAIRFIELD *    CLEAR     14   1  57 CALM      30.54S
FORT MADISON * CLEAR     12   3  67 N5        30.56R WCI   4
KEOKUK *       CLEAR     16   3  57 SE3       30.55R
OSKALOOSA *      N/A     15   3  59 CALM      30.52S
CENTERVILLE *  CLEAR     19   5  53 CALM      30.51S
OTTUMWA        CLEAR     17   2  51 NE5       30.52S WCI  10
6HR MIN TEMP:  13; 6HR MAX TEMP:  20;

WASHINGTON *   CLEAR     12   3  67 NW5       30.55R WCI   4
$$

ABBREVIATIONS USED IN REMARKS
   TC - TEMPERATURES IN CELSIUS
  WCI - WIND CHILL INDEX
   HX - HEAT INDEX
  VSB - VISIBILITY
$$



USA.gov is the U.S. government's official web portal to all federal, state and local government web resources and services.